Location: Kuffner-Sternwarte
(48.2130°N, 16.2960°E)
Time: 16:53:26
(UTC+01:00)

COROT - Pass Details

Date: 20 August 2018
Orbit: 599 x 890 km, 90.0° (Epoch: 14 December)

Event Time Altitude Azimuth Distance (km) Brightness Sun altitude
Exits shadow 04:11:59 14° 182° (S) 1,859 7.6 -15.7°
Maximum altitude 04:15:58 78° 268° (W) 681 5.6 -15.2°
Drops below altitude 10° 04:20:24 10° 356° (N) 2,021 8.7 -14.6°
Sets 04:22:34 0° 357° (N) 2,907 9.5 -14.3°
